Location: Dzierzno
(50.6159°N, 19.2852°E)
Time: 07:43:57
(UTC+00:00)

IRS-P3 - Pass Details

Date: 18 November 2025
Orbit: 810 x 816 km, 99.0° (Epoch: 13 December)

Event Time Altitude Azimuth Distance (km) Brightness Sun altitude
Rises 16:26:49 0° 165° (SSE) 3,330 7.3 -14.7°
Reaches altitude 10° 16:29:09 10° 166° (SSE) 2,402 6.6 -15.0°
Maximum altitude 16:34:29 82° 254° (WSW) 831 4.2 -15.9°
Drops below altitude 10° 16:39:51 10° 343° (NNW) 2,416 6.7 -16.7°
Sets 16:42:12 0° 344° (NNW) 3,352 7.4 -17.1°
